Alva, OK

11:57 AM CDT on June 22, 2017 (GMT -0500)
Alva Regional

Weather History for KAVK - October, 2013

Change the Weather History Date:

Thursday, October 31, 2013

  Actual Average Record
Temperature  
Mean Temperature 54 °F -  
Max Temperature 64 °F 64 °F 95 °F (1950)
Min Temperature 44 °F 41 °F 14 °F (1993)
Degree Days  
Heating Degree Days 11    
Growing Degree Days 4 (Base 50)    
Moisture  
Dew Point 45 °F    
Average Humidity 77    
Maximum Humidity 100    
Minimum Humidity 40    
Precipitation  
Precipitation 0.12 in - - ()
Sea Level Pressure  
Sea Level Pressure 29.72 in    
Wind  
Wind Speed 13 mph (NW)    
Max Wind Speed 28 mph    
Max Gust Speed 39 mph    
Visibility 9 miles    
Events Rain , Thunderstorm    
Averages and records for this station are not official NWS values.
T = Trace of Precipitation, MM = Missing Value Source: NWS Daily Summary

Daily Weather History Graph

Daily Weather History Graph

Search for Another Location

Airport or City:

Trip Planner

Search our weather history database for the weather conditions in past years. The results will help you decide how hot, cold, wet, or windy it might be!

Date:

Astronomy

Oct. 31, 2013 Rise Set
Actual Time 7:57 AM CDT 6:38 PM CDT
Civil Twilight 7:30 AM CDT 7:05 PM CDT
Nautical Twilight 7:00 AM CDT 7:35 PM CDT
Astronomical Twilight 6:30 AM CDT 8:05 PM CDT
Moon 4:53 AM CDT (10/31) 4:53 PM CDT (10/31)
Length of Visible Light 11h 34m
Length of Day
10h 40m
Waning Crescent, 10% of the Moon is Illuminated
Oct 31
Waning Crescent
Nov 3
New
Nov 9
First Quarter
Nov 17
Full
Nov 25
Last Quarter

Hourly Weather History & Observations

Time (CDT) Temp. Windchill Dew Point Humidity Pressure Visibility Wind Dir Wind Speed Gust Speed Precip Events Conditions
12:05 AM 51.8 °F - 50.0 °F 94% 29.74 in 10.0 mi North 12.7 mph 16.1 mph N/A   Overcast
12:25 AM 50.0 °F - 50.0 °F 100% 29.76 in 4.0 mi NNW 5.8 mph - 0.01 in Rain , Thunderstorm Light Rain
12:45 AM 50.0 °F - 50.0 °F 100% 29.74 in 2.0 mi North 5.8 mph - 0.07 in Rain , Thunderstorm Thunderstorms and Rain
1:05 AM 50.0 °F - 50.0 °F 100% 29.76 in 3.0 mi North 9.2 mph - 0.01 in Rain Rain
1:30 AM 50.0 °F - 50.0 °F 100% 29.70 in 3.0 mi NE 15.0 mph - 0.08 in Rain Light Rain
1:45 AM 50.0 °F - 50.0 °F 100% 29.69 in 5.0 mi NE 15.0 mph - 0.08 in Rain Light Rain
2:05 AM 50.0 °F - 50.0 °F 100% 29.67 in 5.0 mi NE 13.8 mph - N/A Rain Light Rain
2:25 AM 50.0 °F - 50.0 °F 100% 29.70 in 4.0 mi North 11.5 mph - N/A Rain Light Rain
2:45 AM 50.0 °F - 50.0 °F 100% 29.66 in 4.0 mi ENE 11.5 mph - 0.04 in Rain Light Rain
3:05 AM 50.0 °F - 50.0 °F 100% 29.64 in 5.0 mi ENE 13.8 mph - N/A Rain Light Rain
3:25 AM 50.0 °F - 50.0 °F 100% 29.62 in 5.0 mi ENE 10.4 mph - N/A   Overcast
3:45 AM 50.0 °F - 50.0 °F 100% 29.62 in 6.0 mi East 11.5 mph - N/A Rain Light Rain
4:05 AM 50.0 °F - 50.0 °F 100% 29.63 in 7.0 mi NNE 4.6 mph - N/A Rain Light Rain
4:25 AM 50.0 °F - 50.0 °F 100% 29.65 in 5.0 mi North 10.4 mph 24.2 mph N/A Rain Light Rain
4:45 AM 50.0 °F - 50.0 °F 100% 29.62 in 7.0 mi NE 12.7 mph - N/A   Overcast
5:10 AM 50.0 °F - 50.0 °F 100% 29.65 in 10.0 mi NNW 10.4 mph - N/A   Overcast
5:25 AM 50.0 °F - 50.0 °F 100% 29.64 in 10.0 mi North 10.4 mph - N/A   Overcast
5:45 AM 50.0 °F - 50.0 °F 100% 29.66 in 10.0 mi NNW 11.5 mph - N/A   Overcast
6:05 AM 50.0 °F - 48.2 °F 94% 29.65 in 10.0 mi NNE 12.7 mph - N/A   Overcast
6:25 AM 48.2 °F - 48.2 °F 100% 29.65 in 10.0 mi North 18.4 mph 21.9 mph N/A   Overcast
6:45 AM 48.2 °F - 48.2 °F 100% 29.64 in 10.0 mi North 16.1 mph 23.0 mph N/A   Overcast
7:05 AM 48.2 °F - 48.2 °F 100% 29.66 in 10.0 mi North 13.8 mph - N/A   Overcast
7:25 AM 48.2 °F - 48.2 °F 100% 29.65 in 9.0 mi NNE 11.5 mph - N/A Rain Light Rain
7:45 AM 48.2 °F - 48.2 °F 100% 29.64 in 8.0 mi NNE 12.7 mph - N/A   Overcast
8:05 AM 48.2 °F - 46.4 °F 93% 29.65 in 10.0 mi North 10.4 mph - N/A   Overcast
8:25 AM 50.0 °F - 46.4 °F 87% 29.67 in 10.0 mi NW 12.7 mph - N/A   Overcast
8:45 AM 50.0 °F - 46.4 °F 87% 29.70 in 7.0 mi NW 20.7 mph 26.5 mph N/A Rain Light Rain
9:05 AM 48.2 °F - 46.4 °F 93% 29.72 in 5.0 mi NW 23.0 mph 32.2 mph N/A Rain Light Rain
9:25 AM 48.2 °F - 44.6 °F 87% 29.73 in 10.0 mi NNW 20.7 mph 32.2 mph N/A   Overcast
9:45 AM 48.2 °F - 44.6 °F 87% 29.73 in 9.0 mi NNW 19.6 mph 28.8 mph N/A Rain Light Rain
10:05 AM 50.0 °F - 44.6 °F 82% 29.73 in 10.0 mi NNW 18.4 mph 23.0 mph N/A   Mostly Cloudy
10:30 AM 51.8 °F - 44.6 °F 76% 29.74 in 10.0 mi NNW 18.4 mph 21.9 mph N/A Rain Light Rain
10:45 AM 51.8 °F - 46.4 °F 82% 29.74 in 10.0 mi NW 15.0 mph 21.9 mph N/A   Mostly Cloudy
11:05 AM 53.6 °F - 46.4 °F 77% 29.73 in 10.0 mi NNW 12.7 mph - N/A   Overcast
11:25 AM 55.4 °F - 44.6 °F 67% 29.74 in 10.0 mi NNW 16.1 mph 20.7 mph N/A   Overcast
11:45 AM 57.2 °F - 44.6 °F 63% 29.76 in 10.0 mi NW 15.0 mph - N/A   Mostly Cloudy
12:05 PM 59.0 °F - 46.4 °F 63% 29.77 in 10.0 mi NW 20.7 mph 28.8 mph N/A   Mostly Cloudy
12:25 PM 59.0 °F - 46.4 °F 63% 29.77 in 10.0 mi WNW 23.0 mph 28.8 mph N/A   Mostly Cloudy
12:45 PM 59.0 °F - 48.2 °F 67% 29.76 in 10.0 mi West 13.8 mph 21.9 mph N/A   Partly Cloudy
1:10 PM 60.8 °F - 48.2 °F 63% 29.75 in 10.0 mi WNW 20.7 mph 32.2 mph N/A   Clear
1:25 PM 60.8 °F - 46.4 °F 59% 29.75 in 10.0 mi NW 21.9 mph 29.9 mph N/A   Clear
1:45 PM 62.6 °F - 44.6 °F 52% 29.74 in 10.0 mi NW 26.5 mph 34.5 mph N/A   Clear
2:05 PM 62.6 °F - 46.4 °F 55% 29.74 in 10.0 mi NW 19.6 mph 34.5 mph N/A   Clear
2:25 PM 62.6 °F - 44.6 °F 52% 29.73 in 10.0 mi WNW 25.3 mph 32.2 mph N/A   Clear
2:45 PM 62.6 °F - 44.6 °F 52% 29.72 in 10.0 mi WNW 24.2 mph 33.4 mph N/A   Clear
3:05 PM 62.6 °F - 42.8 °F 48% 29.73 in 10.0 mi WNW 27.6 mph 36.8 mph N/A   Partly Cloudy
3:25 PM 62.6 °F - 42.8 °F 48% 29.72 in 10.0 mi WNW 26.5 mph 33.4 mph N/A   Partly Cloudy
3:45 PM 64.4 °F - 42.8 °F 45% 29.73 in 10.0 mi WNW 24.2 mph 39.1 mph N/A   Clear
4:05 PM 62.6 °F - 42.8 °F 48% 29.73 in 10.0 mi WNW 26.5 mph 29.9 mph N/A   Clear
4:25 PM 64.4 °F - 39.2 °F 40% 29.73 in 10.0 mi NW 25.3 mph 31.1 mph N/A   Clear
4:45 PM 64.4 °F - 39.2 °F 40% 29.73 in 10.0 mi NW 17.3 mph 26.5 mph N/A   Clear
5:05 PM 62.6 °F - 39.2 °F 42% 29.72 in 10.0 mi NW 21.9 mph 28.8 mph N/A   Clear
5:25 PM 64.4 °F - 39.2 °F 40% 29.73 in 10.0 mi NW 12.7 mph 20.7 mph N/A   Clear
5:45 PM 62.6 °F - 41.0 °F 45% 29.74 in 10.0 mi WNW 13.8 mph - N/A   Clear
6:05 PM 60.8 °F - 41.0 °F 48% 29.75 in 10.0 mi WNW 9.2 mph - N/A   Clear
6:30 PM 59.0 °F - 39.2 °F 48% 29.73 in 10.0 mi NW 9.2 mph - N/A   Clear
6:45 PM 57.2 °F - 41.0 °F 55% 29.74 in 10.0 mi NW 6.9 mph - N/A   Clear
7:05 PM 55.4 °F - 41.0 °F 58% 29.75 in 10.0 mi West 3.5 mph - N/A   Clear
7:25 PM 53.6 °F - 41.0 °F 62% 29.75 in 10.0 mi WSW 4.6 mph - N/A   Clear
7:45 PM 50.0 °F - 41.0 °F 71% 29.76 in 10.0 mi West 5.8 mph - N/A   Clear
8:05 PM 50.0 °F - 41.0 °F 71% 29.77 in 10.0 mi WSW 9.2 mph - N/A   Clear
8:30 PM 50.0 °F - 41.0 °F 71% 29.78 in 10.0 mi WSW 8.1 mph - N/A   Clear
8:45 PM 48.2 °F - 41.0 °F 76% 29.78 in 10.0 mi WSW 9.2 mph - N/A   Clear
9:10 PM 48.2 °F - 41.0 °F 76% 29.79 in 10.0 mi WSW 11.5 mph - N/A   Clear
9:25 PM 48.2 °F - 41.0 °F 76% 29.79 in 10.0 mi SW 11.5 mph - N/A   Clear
9:45 PM 48.2 °F - 41.0 °F 76% 29.80 in 10.0 mi WSW 6.9 mph - N/A   Clear
10:05 PM 48.2 °F - 39.2 °F 71% 29.80 in 10.0 mi WSW 9.2 mph - N/A   Clear
10:25 PM 46.4 °F 42.9 °F 39.2 °F 76% 29.80 in 10.0 mi West 6.9 mph - N/A   Clear
10:45 PM 46.4 °F 42.9 °F 39.2 °F 76% 29.80 in 10.0 mi West 6.9 mph - N/A   Clear
11:05 PM 46.4 °F 42.9 °F 39.2 °F 76% 29.80 in 10.0 mi WSW 6.9 mph - N/A   Clear
11:25 PM 44.6 °F 39.2 °F 39.2 °F 81% 29.81 in 10.0 mi WSW 10.4 mph - N/A   Clear
11:45 PM 44.6 °F 39.7 °F 39.2 °F 81% 29.80 in 10.0 mi WSW 9.2 mph - N/A   Clear